Wind_Speed
28 27 25 25 25 25 26 26 25 25 26 26 25 24 24 24 22 19 18 18 17 17 18 20 24 28 30 30 29 27 25 24 23 22 21 19 19 18 17 16 15 13 12
31 28 26 25 26 25 25 25 25 25 25 25 24 24 23 22 21 21 20 19 18 19 19 20 22 24 28 31 32 32 30 27 26 25 24 23 21 20 19 18 17 16 16
31 27 25 25 25 24 24 24 25 26 26 26 25 25 24 24 23 22 21 21 20 20 20 21 22 23 25 27 30 34 33 31 29 28 27 26 25 23 22 20 19 18 18
30 27 24 23 23 24 24 24 25 26 26 26 26 25 24 23 22 22 21 21 20 20 21 21 23 24 24 25 26 30 34 34 32 31 30 30 29 27 26 24 22 20 19
29 25 22 22 23 24 24 24 25 25 26 26 26 25 24 23 22 21 20 19 19 19 20 20 21 23 24 25 25 26 30 34 34 33 33 32 31 30 29 28 26 24 22
25 23 22 23 24 24 24 24 24 25 25 25 25 25 24 22 21 19 18 17 17 17 17 18 19 21 23 25 25 26 27 29 32 34 35 34 34 33 32 30 29 27 25
23 22 22 24 24 25 24 24 24 24 24 24 24 24 23 22 21 19 18 16 15 15 15 16 17 19 21 23 25 26 26 27 28 31 34 36 36 36 35 33 31 30 29
21 21 23 24 25 26 25 25 25 24 24 24 24 23 23 22 21 19 18 16 15 14 14 14 15 17 19 21 22 24 26 27 28 28 30 34 37 38 37 35 34 33 32
21 22 23 25 26 27 27 27 26 25 25 24 24 24 23 23 22 20 19 18 16 15 14 13 14 15 17 19 21 23 25 26 27 27 28 30 33 36 38 37 36 36 35
24 25 26 26 27 28 29 29 28 28 27 26 26 25 25 25 24 23 21 20 18 17 16 14 14 15 16 18 20 23 24 26 27 28 28 29 31 33 36 37 37 38 38
28 29 30 30 30 31 31 32 31 31 30 29 29 28 27 26 26 26 24 21 19 18 17 16 15 15 16 18 20 22 24 26 27 29 29 29 30 31 33 35 35 36 39
35 34 34 34 35 35 35 35 35 34 33 32 32 31 30 29 28 28 27 24 22 20 19 18 17 17 17 18 20 21 23 25 27 28 29 29 30 32 32 34 35 34 36
42 41 40 40 40 39 39 39 38 37 37 36 35 34 33 32 30 30 29 27 25 23 21 20 19 19 18 18 20 21 22 24 26 27 28 28 29 30 32 33 35 35 36
48 48 48 47 46 45 44 43 42 41 41 40 39 38 37 35 34 32 31 29 28 26 24 22 21 21 20 19 20 21 22 23 24 26 27 27 28 29 32 33 35 36 37
54 54 54 53 53 52 50 49 47 46 45 44 44 43 41 40 38 36 34 32 30 28 27 24 23 23 22 21 20 21 22 22 23 25 26 26 27 27 29 33 35 37 38
59 60 60 59 59 58 58 56 54 52 50 49 48 47 46 44 42 40 37 34 32 30 29 27 25 24 23 22 21 21 21 22 23 24 25 26 26 27 27 29 31 32 34
58 61 64 65 65 65 64 63 62 59 57 55 53 52 50 49 47 44 41 37 34 32 30 29 27 26 25 23 21 21 21 21 22 23 24 25 26 26 26 25 25 26 27
55 58 61 65 68 70 70 68 67 65 64 62 60 57 55 53 51 47 44 41 37 34 32 30 29 27 25 23 22 21 21 21 22 23 24 24 25 25 25 25 24 24 24
54 56 58 62 65 69 73 74 73 71 69 67 65 63 60 57 55 52 48 44 40 37 34 32 30 28 26 24 22 21 20 20 21 23 25 25 25 24 24 23 23 22 23
52 53 54 56 59 63 67 72 76 76 74 72 70 68 64 61 58 56 52 48 44 40 35 33 31 29 27 24 22 21 20 19 20 22 25 26 26 25 24 23 23 23 23
51 51 51 52 53 55 58 62 68 74 77 76 74 71 69 65 62 59 55 52 48 43 38 34 32 30 27 26 24 22 20 19 20 21 24 25 26 26 25 24 23 23 23
48 49 49 50 50 49 50 51 55 61 70 75 76 75 73 69 65 61 58 54 50 45 40 37 34 31 28 26 24 22 20 19 20 21 23 25 26 26 26 26 25 24 23
44 46 46 47 47 46 45 45 46 48 54 64 72 76 76 72 67 63 59 55 52 47 43 39 35 32 30 27 25 22 20 20 20 22 23 24 25 25 26 26 25 25 24
40 42 45 45 46 44 42 41 40 41 42 47 57 67 74 74 69 64 59 56 53 48 44 41 37 34 31 28 25 22 20 20 20 21 22 23 24 24 25 25 25 25 25
36 39 43 44 44 42 40 38 36 35 35 37 42 52 62 70 69 65 60 56 52 49 46 42 39 36 32 28 25 22 19 18 19 20 21 22 22 23 24 24 25 25 25
32 35 39 42 43 41 40 37 34 32 30 31 34 40 49 59 64 64 60 56 52 49 46 43 39 36 32 29 25 22 19 19 19 20 20 21 21 21 22 22 22 23 23
Wind_Direction
260 262 262 261 258 257 258 258 258 258 258 260 264 269 272 271 270 271 271 270 267 267 264 258 250 244 241 239 235 231 228 228 229 229 227 224 222 224 225 225 225 226 227
255 258 258 257 255 255 255 257 257 257 257 258 260 263 264 265 266 268 269 267 265 262 262 261 259 255 251 248 242 235 231 230 229 230 230 229 227 226 227 229 231 232 233
251 254 253 253 251 249 250 252 254 254 255 255 257 258 260 261 265 267 269 269 268 268 266 263 261 258 257 255 247 239 235 232 231 231 230 230 230 229 229 230 232 235 235
249 250 250 248 246 245 247 249 250 250 251 253 254 254 256 259 261 264 267 270 271 270 267 264 262 259 257 256 253 245 239 236 235 234 232 231 232 232 231 232 233 234 235
244 244 244 245 244 243 244 246 248 248 249 251 252 253 254 256 258 261 265 268 270 270 268 265 262 259 257 254 252 249 244 241 240 237 234 232 232 233 233 233 234 234 234
238 240 242 244 243 242 242 243 245 246 247 249 249 250 250 250 250 252 257 260 265 267 267 266 263 260 258 254 251 248 246 244 243 240 236 235 234 234 234 234 235 235 235
237 240 244 245 242 240 240 240 242 243 244 244 244 243 243 243 242 244 247 252 259 263 266 266 265 262 260 257 254 251 249 247 245 243 240 238 236 234 235 235 236 237 237
246 245 246 245 242 240 239 238 239 241 241 240 239 240 239 238 239 241 244 249 255 260 265 268 267 266 264 261 257 254 251 250 247 246 243 240 238 237 237 237 239 239 239
255 252 251 248 245 242 240 238 238 238 238 238 238 238 238 239 240 241 245 248 251 257 263 269 272 271 269 266 262 256 252 250 248 248 247 244 241 240 239 241 241 241 241
262 257 254 250 247 245 242 240 238 237 236 236 238 239 241 241 242 242 243 246 249 255 260 265 271 274 273 271 267 261 256 251 249 248 248 247 244 242 242 241 242 243 243
263 259 255 251 248 246 244 242 240 237 236 235 236 238 241 243 244 245 245 247 251 255 257 260 265 272 275 275 272 266 260 254 250 249 248 248 246 245 243 242 243 244 243
259 257 255 251 248 245 243 241 240 239 238 236 235 237 239 241 244 247 249 250 250 251 254 257 262 269 275 277 276 271 265 257 252 250 248 248 247 246 244 242 242 242 241
256 254 252 250 248 245 242 240 239 239 239 238 237 237 238 239 241 244 248 253 254 253 252 254 260 268 275 280 280 276 269 261 254 250 249 248 248 246 242 241 239 240 239
255 253 251 249 247 246 244 241 239 237 238 239 239 238 238 239 239 241 244 250 255 258 256 256 260 265 272 279 282 280 274 263 255 250 248 248 248 245 242 241 239 238 236
255 252 250 248 246 245 243 242 241 238 237 238 239 239 239 240 240 240 241 244 250 255 259 259 261 264 269 276 281 283 278 267 256 250 247 247 248 246 244 241 239 237 237
256 253 250 247 245 243 242 241 241 240 239 238 239 239 239 240 240 239 239 241 244 250 256 259 260 262 266 271 278 281 280 269 257 251 247 247 248 248 246 243 240 238 237
260 254 251 248 245 243 241 240 239 239 238 238 238 239 239 240 240 239 239 239 241 245 251 256 259 260 263 267 274 279 278 269 257 250 247 245 243 242 240 240 239 237 236
263 257 253 249 246 243 241 239 238 237 236 237 237 238 239 239 239 239 239 239 240 242 247 253 256 258 259 262 270 277 276 268 256 248 244 244 240 238 237 236 236 235 233
263 258 254 250 247 244 242 239 237 236 235 235 235 237 237 238 239 239 239 239 239 240 244 249 253 254 255 259 265 273 275 267 255 246 242 241 239 238 239 237 236 236 236
260 255 252 249 247 245 243 241 238 236 235 233 233 234 235 236 237 238 238 238 238 239 241 245 248 250 251 254 260 267 271 267 255 246 241 239 239 238 240 241 240 242 242
257 251 248 246 244 244 244 243 241 238 236 234 233 232 233 233 234 235 236 236 237 238 239 242 244 247 248 250 255 262 266 265 256 246 240 239 238 239 241 244 246 247 247
255 249 245 242 240 240 240 242 242 241 238 236 234 233 233 232 232 232 232 233 234 235 237 238 240 243 244 246 250 256 261 262 254 247 242 239 238 240 242 244 245 246 248
254 247 241 238 235 235 237 238 240 240 240 239 236 234 232 232 230 230 229 230 232 232 233 235 237 238 240 242 245 250 255 257 251 245 240 238 237 238 240 242 244 246 245
252 243 236 234 231 231 233 234 237 239 241 240 238 236 233 231 229 228 226 226 228 229 230 231 232 234 235 238 241 244 249 251 249 244 239 236 236 237 239 242 242 243 243
247 239 231 230 229 227 229 231 234 237 241 241 239 236 233 230 228 226 224 224 224 224 225 226 228 229 231 233 235 238 243 245 243 240 237 234 233 235 237 240 241 242 242
243 236 229 228 225 224 225 228 232 234 236 238 238 234 231 228 226 223 221 220 219 219 220 221 223 223 225 227 228 230 234 237 237 236 235 235 233 234 235 237 238 238 238
Height
5843 5844 5845 5845 5845 5845 5845 5845 5846 5847 5848 5848 5849 5850 5851 5851 5852 5854 5854 5855 5856 5856 5857 5859 5861 5863 5865 5867 5870 5872 5874 5876 5878 5880 5882 5884 5886 5888 5889 5890 5892 5893 5894
5834 5836 5837 5838 5839 5838 5839 5839 5840 5841 5842 5843 5844 5845 5846 5847 5847 5848 5849 5849 5850 5851 5852 5854 5855 5857 5859 5861 5863 5866 5869 5871 5873 5876 5878 5880 5882 5884 5886 5887 5888 5890 5891
5826 5828 5829 5830 5831 5832 5832 5833 5833 5835 5836 5837 5838 5839 5840 5841 5842 5843 5844 5844 5845 5846 5847 5848 5849 5851 5852 5854 5856 5859 5862 5865 5868 5870 5873 5875 5877 5879 5882 5883 5885 5886 5888
5817 5820 5821 5823 5824 5825 5825 5826 5827 5828 5830 5831 5832 5833 5835 5836 5837 5838 5838 5839 5840 5840 5841 5842 5843 5845 5846 5848 5850 5852 5855 5858 5861 5864 5867 5869 5872 5874 5877 5879 5881 5883 5885
5809 5812 5814 5815 5817 5818 5819 5820 5821 5822 5823 5825 5826 5828 5829 5830 5832 5833 5834 5834 5835 5835 5835 5836 5837 5838 5839 5841 5843 5846 5848 5852 5854 5857 5860 5863 5866 5869 5871 5874 5876 5878 5881
5802 5804 5806 5808 5810 5811 5812 5813 5814 5816 5817 5819 5820 5822 5823 5825 5826 5827 5829 5829 5830 5830 5830 5830 5831 5832 5833 5835 5837 5839 5842 5844 5847 5850 5853 5856 5859 5862 5865 5868 5871 5874 5876
5795 5797 5799 5801 5803 5804 5806 5807 5809 5810 5811 5813 5814 5816 5818 5820 5821 5822 5823 5824 5825 5825 5825 5825 5826 5827 5828 5829 5831 5833 5835 5838 5840 5843 5845 5849 5852 5855 5858 5862 5865 5868 5871
5790 5791 5793 5794 5796 5798 5799 5801 5803 5804 5806 5807 5809 5811 5813 5815 5816 5818 5819 5820 5820 5821 5821 5821 5821 5822 5823 5824 5825 5827 5829 5831 5833 5835 5838 5841 5844 5847 5851 5854 5858 5861 5865
5785 5786 5787 5788 5789 5790 5792 5794 5796 5798 5799 5801 5803 5805 5807 5809 5811 5813 5815 5816 5816 5816 5816 5816 5817 5817 5818 5819 5820 5821 5822 5824 5826 5828 5831 5834 5837 5840 5844 5847 5850 5854 5858
5780 5780 5781 5781 5782 5783 5785 5786 5788 5790 5792 5794 5797 5799 5801 5803 5806 5808 5810 5812 5812 5812 5812 5812 5812 5813 5813 5813 5814 5815 5816 5818 5819 5821 5824 5826 5830 5833 5836 5839 5842 5845 5849
5773 5773 5774 5774 5775 5776 5777 5779 5780 5782 5785 5787 5790 5792 5795 5797 5799 5802 5805 5807 5807 5808 5808 5808 5808 5808 5808 5808 5809 5809 5810 5811 5813 5815 5817 5819 5822 5825 5828 5831 5834 5837 5840
5763 5764 5764 5765 5766 5767 5768 5770 5772 5774 5776 5779 5782 5785 5787 5790 5792 5795 5797 5800 5801 5803 5803 5803 5803 5803 5803 5803 5803 5803 5804 5805 5806 5808 5810 5812 5815 5817 5820 5822 5825 5828 5831
5750 5751 5752 5754 5755 5757 5758 5760 5762 5764 5767 5770 5773 5776 5779 5782 5786 5788 5790 5792 5794 5796 5797 5797 5797 5797 5797 5797 5797 5797 5797 5798 5799 5801 5803 5805 5808 5810 5812 5814 5817 5820 5823
5735 5735 5737 5739 5741 5743 5746 5748 5751 5753 5756 5760 5763 5766 5770 5773 5777 5780 5783 5785 5787 5788 5790 5791 5791 5791 5791 5791 5791 5791 5791 5792 5793 5795 5797 5799 5801 5803 5805 5807 5809 5812 5815
5715 5717 5719 5722 5725 5728 5731 5735 5738 5741 5744 5748 5752 5755 5760 5763 5767 5771 5775 5778 5780 5780 5781 5783 5784 5785 5785 5785 5785 5784 5784 5785 5786 5788 5790 5792 5794 5795 5797 5799 5801 5804 5806
5694 5696 5698 5702 5705 5710 5714 5718 5723 5727 5731 5735 5739 5743 5748 5752 5756 5760 5764 5768 5771 5773 5774 5775 5777 5778 5778 5779 5778 5778 5778 5778 5779 5781 5783 5785 5787 5789 5791 5793 5795 5797 5799
5670 5672 5675 5679 5683 5688 5693 5699 5704 5710 5715 5720 5725 5730 5735 5739 5744 5748 5753 5758 5761 5764 5766 5767 5769 5770 5771 5772 5772 5772 5772 5772 5773 5775 5777 5779 5781 5783 5785 5787 5789 5791 5794
5646 5648 5651 5655 5659 5664 5670 5677 5684 5690 5697 5704 5709 5715 5721 5726 5731 5736 5741 5746 5751 5755 5757 5759 5761 5763 5764 5765 5765 5765 5765 5766 5767 5768 5770 5772 5775 5777 5780 5782 5784 5786 5789
5621 5624 5627 5631 5635 5640 5646 5653 5661 5668 5676 5684 5691 5698 5705 5711 5717 5723 5729 5734 5740 5744 5748 5751 5752 5755 5757 5758 5758 5759 5759 5759 5760 5762 5764 5767 5769 5772 5775 5777 5780 5782 5785
5598 5600 5604 5608 5612 5617 5622 5629 5637 5645 5654 5663 5671 5679 5687 5695 5702 5709 5716 5722 5728 5734 5738 5742 5744 5747 5749 5750 5751 5752 5752 5753 5754 5755 5758 5761 5763 5767 5770 5772 5775 5777 5779
5574 5578 5582 5587 5592 5597 5602 5607 5614 5622 5631 5641 5650 5659 5669 5677 5686 5694 5702 5709 5716 5722 5728 5732 5735 5739 5741 5743 5745 5745 5746 5746 5747 5749 5752 5755 5758 5761 5764 5767 5769 5771 5773
5552 5556 5562 5568 5573 5579 5584 5590 5595 5602 5610 5619 5629 5639 5650 5660 5669 5679 5687 5695 5703 5711 5717 5722 5726 5730 5733 5736 5737 5739 5739 5740 5741 5744 5746 5749 5752 5755 5758 5760 5763 5765 5767
5531 5537 5543 5550 5557 5563 5569 5574 5580 5585 5591 5599 5609 5619 5630 5642 5652 5662 5672 5681 5690 5699 5706 5712 5717 5721 5725 5728 5730 5732 5733 5734 5735 5737 5740 5742 5745 5748 5752 5754 5756 5759 5761
5512 5518 5526 5534 5541 5549 5555 5561 5566 5571 5577 5582 5590 5599 5611 5623 5635 5646 5657 5667 5677 5687 5695 5702 5708 5712 5717 5720 5723 5725 5726 5728 5729 5732 5734 5737 5739 5742 5745 5748 5750 5753 5755
5496 5502 5511 5519 5527 5536 5543 5549 5554 5560 5565 5569 5574 5582 5592 5605 5619 5632 5644 5655 5665 5675 5684 5692 5698 5703 5708 5712 5715 5718 5720 5722 5724 5726 5729 5731 5734 5736 5739 5741 5744 5746 5749
5482 5489 5497 5506 5515 5524 5531 5538 5544 5549 5555 5559 5563 5569 5577 5589 5602 5617 5630 5642 5654 5664 5673 5681 5688 5694 5700 5704 5708 5711 5714 5717 5719 5721 5723 5726 5728 5731 5733 5735 5738 5740 5743